Flag for U.S.A. Weather past 2 weeks in Greensboro, North Carolina, U.S.A.

Now
82 °F

Partly sunny.


Feels Like: 83 °F
Forecast: 67 / 87 °F
Wind: 8 mph from South

Location: Piedmont Triad International Airport

Current Time: May 28, 2015 at 2:58:37 PM

Latest Report: May 28, 2015 at 1:54 PM


Visibility: 10 mi

Pressure: 30.17 "Hg

Humidity: 55%

Dew point: 64 °F

Location of GreensboroLocation

Historic Weather in Greensboro — Graph

°F

Greensboro temperature yesterday

Maximum temperature yesterday: 82 °F (at 3:54 PM)
Minimum temperature yesterday: 65 °F (at 5:54 AM)
Average temperature yesterday: 74 °F

Past Weeks' High & Low Weather Summary

 TemperatureHumidityPressure
High87 °F (May 20, 3:54 PM)100% (May 21, 8:54 AM)30.43 "Hg (May 21, 8:54 AM)
Low52 °F (May 22, 5:54 AM)27% (May 22, 5:54 PM)29.82 "Hg (May 21, 4:54 AM)
Average71 °F64%30.17 "Hg
* Reported May 13 1:54 PM — May 28 1:54 PM, Greensboro, Weather by CustomWeather, © 2015

Note: Actual official high and low records may vary slightly from our data, if they occured in-between our weather recording intervals... More about our weather records

Advertising

Greensboro weather history for previous 24 hours

 ConditionsComfort  
Time TempWeatherWind HumidityBarometerVisibility
1:54 PM
Thu, May 28
82 °FPartly sunny.8 mph55%30.17 "Hg10 mi
12:54 PM84 °FPartly sunny.9 mph53%30.18 "Hg10 mi
11:54 AM80 °FPartly sunny.No wind56%30.19 "Hg10 mi
10:54 AM79 °FPartly sunny.No wind65%30.19 "Hg10 mi
9:54 AM77 °FScattered clouds.3 mph74%30.20 "Hg10 mi
8:54 AM73 °FPartly sunny.3 mph84%30.20 "Hg7 mi
7:54 AM69 °FFog.6 mph96%30.20 "Hg2 mi
6:54 AM68 °FFog.9 mph100%30.19 "Hg1 mi
5:54 AM68 °FFog.8 mph96%30.16 "Hg4 mi
4:54 AM68 °FPassing clouds.6 mph96%30.16 "Hg7 mi
3:54 AM68 °FPassing clouds.5 mph96%30.16 "Hg9 mi
2:54 AM69 °FPassing clouds.6 mph93%30.16 "Hg10 mi
1:54 AM70 °FPassing clouds.6 mph90%30.17 "Hg10 mi
12:54 AM71 °FPassing clouds.7 mph90%30.19 "Hg10 mi
11:54 PM
Wed, May 27
72 °FPartly cloudy.7 mph84%30.19 "Hg10 mi
10:54 PM72 °FPassing clouds.5 mph81%30.19 "Hg10 mi
9:54 PM74 °FPartly cloudy.10 mph76%30.18 "Hg10 mi
8:54 PM77 °FBroken clouds.9 mph66%30.15 "Hg10 mi
7:54 PM79 °FBroken clouds.10 mph60%30.14 "Hg10 mi
6:54 PM81 °FBroken clouds.12 mph54%30.14 "Hg10 mi
5:54 PM82 °FBroken clouds.10 mph53%30.14 "Hg10 mi
4:54 PM82 °FBroken clouds.8 mph53%30.16 "Hg10 mi
3:54 PM82 °FBroken clouds.10 mph56%30.17 "Hg10 mi
2:54 PM80 °FPartly sunny.9 mph62%30.18 "Hg10 mi
Weather by CustomWeather, © 2015

See weather overviewHow to use our weather pages